• In Italy
  • List of Countries
  • For 7 days
  • Water Temperature
  • Satellite Maps
  • Weather Map
  • Weather Widgets
  • user-avatar
    Login

    Hourly Weather Sagaleipie

    Today, 20 September, Thursday

    Time Temperature Precipitation Wind Pressure Humidity
    00:00 +22°C° 1 mm 0 mps 723 mmHg 97%
    01:00 +22°C° 1 mm 0 mps 722 mmHg 97%
    02:00 +22°C° 1 mm 0 mps 722 mmHg 97%
    03:00 +21°C° 0.7 mm 0 mps 722 mmHg 97%
    04:00 +21°C° 0.7 mm 0 mps 722 mmHg 97%
    05:00 +21°C° 0.7 mm 0 mps 722 mmHg 97%
    06:00 +22°C° 0.6 mm 0 mps 723 mmHg 97%
    07:00 +22°C° 0.6 mm 0 mps 723 mmHg 97%
    08:00 +23°C° 0.6 mm 0 mps 723 mmHg 97%
    09:00 +24°C° 0.8 mm 0 mps 723 mmHg 93%
    10:00 +25°C° 0.8 mm 0 mps 723 mmHg 89%
    11:00 +26°C° 0.8 mm 0 mps 723 mmHg 84%
    12:00 +26°C° 1.9 mm 0 mps 722 mmHg 86%
    13:00 +28°C° 1.9 mm 1 mps 722 mmHg 87%
    14:00 +28°C° 1.9 mm 1 mps 721 mmHg 88%
    15:00 +27°C° 1.3 mm 1 mps 721 mmHg 91%
    16:00 +27°C° 1.3 mm 1 mps 721 mmHg 93%
    17:00 +26°C° 1.3 mm 1 mps 721 mmHg 96%
    18:00 +25°C° 0.8 mm 1 mps 722 mmHg 97%
    19:00 +24°C° 0.8 mm 1 mps 723 mmHg 98%
    20:00 +24°C° 0.8 mm 1 mps 723 mmHg 99%
    21:00 +24°C° 0.4 mm 1 mps 723 mmHg 99%
    22:00 +24°C° 0.4 mm 1 mps 724 mmHg 99%
    23:00 +23°C° 0.4 mm 1 mps 724 mmHg 99%

    Tomorrow, 21 September, Friday

    Time Temperature Precipitation Wind Pressure Humidity
    00:00 +23°C° 0.1 mm 1 mps 723 mmHg 99%
    01:00 +23°C° 0.1 mm 1 mps 723 mmHg 99%
    02:00 +23°C° 0.1 mm 1 mps 722 mmHg 99%
    03:00 +23°C° 0.1 mm 1 mps 722 mmHg 99%
    04:00 +23°C° 0.1 mm 1 mps 722 mmHg 99%
    05:00 +21°C° 0.1 mm 0 mps 723 mmHg 99%
    06:00 +21°C° 0.1 mm 0 mps 723 mmHg 98%
    07:00 +24°C° 0.1 mm 1 mps 724 mmHg 97%
    08:00 +24°C° 0.1 mm 1 mps 724 mmHg 96%
    09:00 +26°C° 0.1 mm 1 mps 724 mmHg 86%
    10:00 +28°C° 0.1 mm 1 mps 724 mmHg 76%
    11:00 +30°C° 0.1 mm 1 mps 723 mmHg 66%
    12:00 +31°C° 0.4 mm 1 mps 723 mmHg 67%
    13:00 +31°C° 0.4 mm 1 mps 722 mmHg 68%
    14:00 +31°C° 0.4 mm 1 mps 721 mmHg 69%
    15:00 +30°C° 1.6 mm 1 mps 721 mmHg 77%
    16:00 +28°C° 1.6 mm 1 mps 721 mmHg 85%
    17:00 +26°C° 1.6 mm 1 mps 721 mmHg 93%
    18:00 +25°C° 0.9 mm 1 mps 722 mmHg 95%
    19:00 +24°C° 0.9 mm 1 mps 722 mmHg 97%
    20:00 +24°C° 0.9 mm 1 mps 723 mmHg 98%
    21:00 +23°C° 0.8 mm 1 mps 723 mmHg 99%
    22:00 +23°C° 0.8 mm 1 mps 723 mmHg 99%
    23:00 +23°C° 0.8 mm 1 mps 724 mmHg 99%

    Day after tomorrow, 22 September, Saturday

    Time Temperature Precipitation Wind Pressure Humidity
    00:00 +23°C° 0.2 mm 1 mps 723 mmHg 99%
    01:00 +23°C° 0.2 mm 1 mps 723 mmHg 99%
    02:00 +23°C° 0.2 mm 1 mps 722 mmHg 99%
    03:00 +23°C° 0.2 mm 1 mps 722 mmHg 99%
    04:00 +21°C° 0.2 mm 0 mps 723 mmHg 99%
    05:00 +21°C° 0.2 mm 0 mps 723 mmHg 99%
    06:00 +22°C° 0.5 mm 0 mps 723 mmHg 98%
    07:00 +22°C° 0.5 mm 0 mps 724 mmHg 97%
    08:00 +22°C° 0.5 mm 0 mps 725 mmHg 97%
    09:00 +24°C° 0.6 mm 0 mps 724 mmHg 90%
    10:00 +27°C° 0.6 mm 1 mps 724 mmHg 83%
    11:00 +29°C° 0.6 mm 1 mps 724 mmHg 76%
    12:00 +30°C° 0 mm 1 mps 723 mmHg 71%
    13:00 +31°C° 0 mm 1 mps 722 mmHg 66%
    14:00 +30°C° 0 mm 0 mps 722 mmHg 60%
    15:00 +30°C° 1.8 mm 1 mps 722 mmHg 72%
    16:00 +28°C° 1.8 mm 1 mps 722 mmHg 83%
    17:00 +26°C° 1.8 mm 1 mps 722 mmHg 94%
    18:00 +25°C° 3.1 mm 1 mps 722 mmHg 95%
    19:00 +24°C° 3.1 mm 1 mps 723 mmHg 96%
    20:00 +24°C° 3.1 mm 1 mps 724 mmHg 97%
    21:00 +24°C° 0.3 mm 1 mps 724 mmHg 98%
    22:00 +23°C° 0.3 mm 1 mps 724 mmHg 98%
    23:00 +23°C° 0.3 mm 1 mps 724 mmHg 99%

    23 September, Sunday

    Time Temperature Precipitation Wind Pressure Humidity
    00:00 +21°C° 0 mm 0 mps 723 mmHg 99%
    01:00 +21°C° 0 mm 0 mps 723 mmHg 99%
    02:00 +21°C° 0 mm 0 mps 722 mmHg 99%
    03:00 +21°C° 0 mm 0 mps 723 mmHg 99%
    04:00 +21°C° 0 mm 0 mps 723 mmHg 99%
    05:00 +21°C° 0 mm 0 mps 723 mmHg 99%
    06:00 +22°C° 0 mm 0 mps 724 mmHg 97%
    07:00 +22°C° 0 mm 0 mps 724 mmHg 96%
    08:00 +23°C° 0 mm 0 mps 725 mmHg 94%
    09:00 +25°C° 0.4 mm 0 mps 724 mmHg 86%
    10:00 +26°C° 0.4 mm 0 mps 724 mmHg 79%
    11:00 +28°C° 0.4 mm 0 mps 724 mmHg 71%
    12:00 +29°C° 0.3 mm 0 mps 723 mmHg 65%
    13:00 +32°C° 0.3 mm 1 mps 722 mmHg 60%
    14:00 +32°C° 0.3 mm 1 mps 721 mmHg 54%
    15:00 +31°C° 0.3 mm 1 mps 721 mmHg 64%
    16:00 +29°C° 0.3 mm 1 mps 722 mmHg 73%
    17:00 +27°C° 0.3 mm 1 mps 722 mmHg 82%
    18:00 +26°C° 1.1 mm 1 mps 723 mmHg 87%
    19:00 +25°C° 1.1 mm 1 mps 723 mmHg 91%
    20:00 +24°C° 1.1 mm 1 mps 724 mmHg 95%
    21:00 +24°C° 1.1 mm 1 mps 724 mmHg 96%
    22:00 +22°C° 1.1 mm 0 mps 724 mmHg 98%
    23:00 +21°C° 1.1 mm 0 mps 724 mmHg 99%

    24 September, Monday

    Time Temperature Precipitation Wind Pressure Humidity
    00:00 +21°C° 0.6 mm 0 mps 723 mmHg 99%
    01:00 +21°C° 0.6 mm 0 mps 723 mmHg 99%
    02:00 +21°C° 0.6 mm 0 mps 722 mmHg 99%
    03:00 +21°C° 0.4 mm 0 mps 723 mmHg 99%
    04:00 +21°C° 0.4 mm 0 mps 723 mmHg 99%
    05:00 +21°C° 0.4 mm 0 mps 723 mmHg 99%
    06:00 +22°C° 0.1 mm 0 mps 723 mmHg 97%
    07:00 +22°C° 0.1 mm 0 mps 724 mmHg 96%
    08:00 +23°C° 0.1 mm 0 mps 724 mmHg 94%
    09:00 +26°C° 0 mm 0 mps 724 mmHg 80%
    10:00 +29°C° 0 mm 0 mps 724 mmHg 66%
    11:00 +32°C° 0 mm 0 mps 723 mmHg 52%
    12:00 +31°C° 0 mm 0 mps 723 mmHg 52%
    13:00 +33°C° 0 mm 1 mps 722 mmHg 53%
    14:00 +33°C° 0 mm 1 mps 721 mmHg 53%
    15:00 +31°C° 0.4 mm 1 mps 721 mmHg 64%
    16:00 +29°C° 0.4 mm 1 mps 722 mmHg 75%
    17:00 +28°C° 0.4 mm 1 mps 722 mmHg 86%
    18:00 +26°C° 1 mm 1 mps 722 mmHg 90%
    19:00 +25°C° 1 mm 1 mps 723 mmHg 93%
    20:00 +24°C° 1 mm 1 mps 723 mmHg 97%
    21:00 +24°C° 0.7 mm 1 mps 723 mmHg 98%
    22:00 +24°C° 0.7 mm 1 mps 723 mmHg 98%
    23:00 +24°C° 0.7 mm 1 mps 723 mmHg 99%

    25 September, Tuesday

    Time Temperature Precipitation Wind Pressure Humidity
    00:00 +24°C° 0.2 mm 1 mps 723 mmHg 99%
    01:00 +24°C° 0.2 mm 1 mps 723 mmHg 99%
    02:00 +24°C° 0.2 mm 1 mps 722 mmHg 99%
    03:00 +24°C° 0.2 mm 1 mps 723 mmHg 99%
    04:00 +22°C° 0.2 mm 0 mps 723 mmHg 99%
    05:00 +22°C° 0.2 mm 0 mps 723 mmHg 99%
    06:00 +22°C° 0.9 mm 0 mps 724 mmHg 97%
    07:00 +25°C° 0.9 mm 1 mps 724 mmHg 95%
    08:00 +26°C° 0.9 mm 1 mps 724 mmHg 93%
    09:00 +25°C° 1 mm 0 mps 724 mmHg 88%
    10:00 +26°C° 1 mm 0 mps 723 mmHg 83%
    11:00 +27°C° 1 mm 0 mps 723 mmHg 78%
    12:00 +28°C° 0.8 mm 0 mps 722 mmHg 73%
    13:00 +30°C° 0.8 mm 1 mps 722 mmHg 68%
    14:00 +31°C° 0.8 mm 1 mps 721 mmHg 64%
    15:00 +29°C° 0.7 mm 1 mps 721 mmHg 73%
    16:00 +28°C° 0.7 mm 1 mps 721 mmHg 81%
    17:00 +26°C° 0.7 mm 1 mps 721 mmHg 90%
    18:00 +26°C° 0.4 mm 1 mps 722 mmHg 92%
    19:00 +23°C° 0.4 mm 0 mps 722 mmHg 95%
    20:00 +22°C° 0.4 mm 0 mps 723 mmHg 97%
    21:00 +22°C° 0.6 mm 0 mps 723 mmHg 97%
    22:00 +21°C° 0.6 mm 0 mps 723 mmHg 98%
    23:00 +21°C° 0.6 mm 0 mps 723 mmHg 98%
    Show more